DLH2TY EDDM-EDDL

Flight info

Callsign DLH2TY
Flight time 0h 56m
Altitude 32000
Route GIVMI6S GIVMI Y101 INBED DCT REKDI DCT LOHRE Z850 ADEMI T854 DOMUX DOMUX1A
Aircraft A21N/M-SDE2E3FGIJ1LORWXYZ/HB1

Departure

Time 2026-05-04 19:15
Airport Munich Airport (EDDM)

Arrival

Time 2026-05-04 20:12
Airport Düsseldorf Airport (EDDL)
Time Latitude Longitude Altitude Speed Heading
2026-05-04 18:37 48.35547 11.79307 1480 ft 0 kts 263°
2026-05-04 19:03 48.35549 11.79325 1488 ft 4 kts 263°
2026-05-04 19:03 48.35551 11.79362 1478 ft 4 kts 263°
2026-05-04 19:03 48.35553 11.79393 1486 ft 4 kts 272°
2026-05-04 19:04 48.35547 11.79427 1481 ft 4 kts 312°
2026-05-04 19:04 48.35529 11.79441 1477 ft 4 kts 353°
2026-05-04 19:04 48.35510 11.79444 1491 ft 0 kts 353°
2026-05-04 19:09 48.35514 11.79444 1480 ft 2 kts 354°
2026-05-04 19:09 48.35548 11.79464 1481 ft 8 kts 41°
2026-05-04 19:09 48.35594 11.79524 1482 ft 10 kts 41°
2026-05-04 19:09 48.35667 11.79552 1491 ft 12 kts 354°
2026-05-04 19:10 48.35761 11.79536 1485 ft 15 kts 353°
2026-05-04 19:10 48.35870 11.79517 1491 ft 17 kts 353°
2026-05-04 19:10 48.35975 11.79498 1486 ft 12 kts 354°
2026-05-04 19:10 48.36063 11.79484 1480 ft 14 kts 354°
2026-05-04 19:11 48.36166 11.79467 1476 ft 16 kts 356°
2026-05-04 19:11 48.36222 11.79565 1478 ft 15 kts 84°
2026-05-04 19:11 48.36232 11.79734 1491 ft 17 kts 85°
2026-05-04 19:11 48.36246 11.79924 1491 ft 19 kts 83°
2026-05-04 19:12 48.36263 11.80132 1485 ft 21 kts 82°
2026-05-04 19:12 48.36302 11.80603 1480 ft 24 kts 84°
2026-05-04 19:12 48.36320 11.80868 1491 ft 26 kts 84°
2026-05-04 19:13 48.36341 11.81149 1491 ft 28 kts 83°
2026-05-04 19:13 48.36365 11.81445 1491 ft 29 kts 83°
2026-05-04 19:13 48.36390 11.81758 1486 ft 31 kts 83°
2026-05-04 19:13 48.36400 11.81969 1491 ft 13 kts 63°
2026-05-04 19:14 48.36475 11.81998 1484 ft 9 kts 354°
2026-05-04 19:14 48.36545 11.81986 1483 ft 11 kts 353°
2026-05-04 19:14 48.36631 11.81970 1482 ft 14 kts 353°
2026-05-04 19:14 48.36669 11.81848 1477 ft 17 kts 263°
2026-05-04 19:15 48.36634 11.81382 1486 ft 84 kts 264°
2026-05-04 19:15 48.36541 11.80143 1484 ft 147 kts 262°
2026-05-04 19:15 48.36394 11.78518 1820 ft 160 kts 264°
2026-05-04 19:15 48.36280 11.76842 2466 ft 163 kts 267°
2026-05-04 19:16 48.36190 11.75072 2938 ft 180 kts 265°
2026-05-04 19:16 48.36037 11.73116 3483 ft 196 kts 263°
2026-05-04 19:16 48.35867 11.71004 4143 ft 211 kts 264°
2026-05-04 19:16 48.35764 11.68729 4768 ft 228 kts 274°
2026-05-04 19:17 48.36238 11.66371 5299 ft 249 kts 299°
2026-05-04 19:17 48.37187 11.64054 5889 ft 269 kts 303°
2026-05-04 19:17 48.38221 11.61640 6694 ft 278 kts 303°
2026-05-04 19:17 48.39259 11.59163 7630 ft 282 kts 302°
2026-05-04 19:18 48.40451 11.56765 8347 ft 296 kts 318°
2026-05-04 19:18 48.42246 11.55090 8816 ft 314 kts 335°
2026-05-04 19:18 48.44289 11.53769 9513 ft 323 kts 337°
2026-05-04 19:18 48.46378 11.52437 10381 ft 327 kts 336°
2026-05-04 19:19 48.48477 11.51070 11260 ft 330 kts 335°
2026-05-04 19:19 48.50586 11.49674 12185 ft 332 kts 334°
2026-05-04 19:19 48.52706 11.48252 13028 ft 335 kts 334°
2026-05-04 19:19 48.54850 11.46809 13797 ft 341 kts 334°
2026-05-04 19:20 48.57030 11.45340 14593 ft 345 kts 334°
2026-05-04 19:20 48.59232 11.43855 15378 ft 349 kts 333°
2026-05-04 19:20 48.61453 11.42352 16146 ft 352 kts 333°
2026-05-04 19:20 48.63703 11.40828 16906 ft 356 kts 333°
2026-05-04 19:21 48.65973 11.39285 17644 ft 359 kts 333°
2026-05-04 19:21 48.68260 11.37723 18367 ft 362 kts 333°
2026-05-04 19:21 48.70527 11.36026 19046 ft 364 kts 326°
2026-05-04 19:21 48.72658 11.33947 19704 ft 367 kts 323°
2026-05-04 19:22 48.74794 11.31774 20349 ft 370 kts 323°
2026-05-04 19:22 48.76935 11.29587 20970 ft 374 kts 323°
2026-05-04 19:22 48.79108 11.27375 21583 ft 378 kts 323°
2026-05-04 19:22 48.81300 11.25146 22183 ft 381 kts 323°
2026-05-04 19:23 48.83520 11.22918 22765 ft 385 kts 326°
2026-05-04 19:23 48.85950 11.21141 23304 ft 392 kts 337°
2026-05-04 19:23 48.88538 11.19792 23853 ft 396 kts 339°
2026-05-04 19:23 48.91167 11.18487 24387 ft 399 kts 339°
2026-05-04 19:24 48.93817 11.17164 24918 ft 402 kts 339°
2026-05-04 19:24 48.96476 11.15830 25437 ft 405 kts 339°
2026-05-04 19:24 48.99162 11.14470 25930 ft 408 kts 339°
2026-05-04 19:24 49.01865 11.13093 26398 ft 411 kts 339°
2026-05-04 19:25 49.04588 11.11705 26881 ft 413 kts 339°
2026-05-04 19:25 49.07317 11.10313 27308 ft 416 kts 339°
2026-05-04 19:25 49.10066 11.08914 27737 ft 418 kts 339°
2026-05-04 19:25 49.12839 11.07499 28150 ft 421 kts 339°
2026-05-04 19:26 49.15626 11.06075 28576 ft 423 kts 339°
2026-05-04 19:26 49.18435 11.04637 28981 ft 426 kts 339°
2026-05-04 19:26 49.21238 11.03200 29374 ft 427 kts 339°
2026-05-04 19:26 49.24139 11.01707 29811 ft 428 kts 339°
2026-05-04 19:27 49.26871 11.00301 29958 ft 426 kts 339°
2026-05-04 19:27 49.32473 10.97411 29968 ft 425 kts 339°
2026-05-04 19:28 49.37955 10.94099 29946 ft 431 kts 326°
2026-05-04 19:28 49.40340 10.91194 29953 ft 436 kts 311°
2026-05-04 19:28 49.42283 10.87678 29962 ft 438 kts 306°
2026-05-04 19:29 49.46080 10.80336 29957 ft 439 kts 306°
2026-05-04 19:29 49.49900 10.73023 29952 ft 439 kts 306°
2026-05-04 19:30 49.53706 10.65768 30767 ft 427 kts 306°
2026-05-04 19:30 49.55560 10.62230 31448 ft 422 kts 306°
2026-05-04 19:30 49.57400 10.58721 31800 ft 423 kts 306°
2026-05-04 19:30 49.59266 10.55162 31930 ft 429 kts 306°
2026-05-04 19:31 49.61150 10.51554 31976 ft 435 kts 306°
2026-05-04 19:31 49.64956 10.44252 31971 ft 437 kts 305°
2026-05-04 19:32 49.68434 10.36610 31967 ft 435 kts 301°
2026-05-04 19:32 49.71841 10.28883 31960 ft 434 kts 301°
2026-05-04 19:33 49.75226 10.21186 31964 ft 433 kts 301°
2026-05-04 19:33 49.78606 10.13456 31960 ft 433 kts 301°
2026-05-04 19:34 49.81984 10.05733 31960 ft 433 kts 301°
2026-05-04 19:34 49.85365 9.98017 31961 ft 433 kts 301°
2026-05-04 19:35 49.88740 9.90273 31967 ft 433 kts 301°
2026-05-04 19:35 49.92104 9.82524 31975 ft 433 kts 300°
2026-05-04 19:36 49.95441 9.74806 31978 ft 433 kts 300°
2026-05-04 19:36 49.98249 9.68298 31980 ft 433 kts 300°
2026-05-04 19:37 50.02142 9.59250 31983 ft 433 kts 300°
2026-05-04 19:37 50.04934 9.52742 31981 ft 432 kts 300°
2026-05-04 19:37 50.07392 9.47825 31972 ft 438 kts 312°
2026-05-04 19:38 50.09713 9.44729 31983 ft 441 kts 317°
2026-05-04 19:38 50.14505 9.38745 31982 ft 441 kts 317°
2026-05-04 19:39 50.18501 9.33708 31982 ft 441 kts 316°
2026-05-04 19:39 50.23266 9.27669 31988 ft 441 kts 316°
2026-05-04 19:40 50.28031 9.21609 31986 ft 441 kts 316°
2026-05-04 19:40 50.32768 9.15542 31979 ft 442 kts 316°
2026-05-04 19:41 50.37540 9.09444 31985 ft 441 kts 316°
2026-05-04 19:41 50.42288 9.03352 31987 ft 442 kts 316°
2026-05-04 19:42 50.47048 8.97248 31983 ft 442 kts 316°
2026-05-04 19:42 50.51802 8.91134 31982 ft 442 kts 316°
2026-05-04 19:43 50.56637 8.85251 31986 ft 443 kts 317°
2026-05-04 19:43 50.61542 8.79368 31988 ft 443 kts 317°
2026-05-04 19:44 50.66442 8.73471 31988 ft 443 kts 317°
2026-05-04 19:44 50.71344 8.67559 31994 ft 443 kts 317°
2026-05-04 19:45 50.76229 8.61625 31996 ft 443 kts 317°
2026-05-04 19:45 50.81099 8.55719 31927 ft 435 kts 317°
2026-05-04 19:45 50.83494 8.52813 31174 ft 434 kts 317°
2026-05-04 19:46 50.85879 8.49910 30243 ft 436 kts 317°
2026-05-04 19:46 50.88300 8.46960 29343 ft 438 kts 317°
2026-05-04 19:46 50.90722 8.44003 28375 ft 440 kts 317°
2026-05-04 19:46 50.93144 8.41053 27544 ft 439 kts 318°
2026-05-04 19:47 50.95555 8.38114 26736 ft 436 kts 318°
2026-05-04 19:47 50.97945 8.35189 25992 ft 432 kts 318°
2026-05-04 19:47 51.00313 8.32279 25363 ft 426 kts 319°
2026-05-04 19:47 51.02751 8.29654 25064 ft 424 kts 326°
2026-05-04 19:48 51.05318 8.27349 24982 ft 424 kts 327°
2026-05-04 19:48 51.07898 8.25063 24972 ft 424 kts 327°
2026-05-04 19:48 51.10450 8.22743 24952 ft 422 kts 323°
2026-05-04 19:48 51.12645 8.19711 24695 ft 413 kts 307°
2026-05-04 19:49 51.14340 8.16077 24121 ft 406 kts 301°
2026-05-04 19:49 51.15927 8.12368 23462 ft 404 kts 301°
2026-05-04 19:49 51.17521 8.08690 22801 ft 402 kts 302°
2026-05-04 19:49 51.19125 8.05054 22134 ft 401 kts 302°
2026-05-04 19:50 51.20733 8.01446 21462 ft 399 kts 302°
2026-05-04 19:50 51.22342 7.97847 20803 ft 397 kts 302°
2026-05-04 19:50 51.23943 7.94267 20178 ft 394 kts 302°
2026-05-04 19:50 51.25529 7.90718 19584 ft 391 kts 302°
2026-05-04 19:51 51.27098 7.87202 19012 ft 388 kts 302°
2026-05-04 19:51 51.28653 7.83713 18502 ft 382 kts 302°
2026-05-04 19:51 51.30165 7.80321 18163 ft 366 kts 302°
2026-05-04 19:51 51.31601 7.77095 17904 ft 347 kts 302°
2026-05-04 19:52 51.32965 7.74027 17673 ft 330 kts 302°
2026-05-04 19:52 51.34260 7.71111 17418 ft 314 kts 302°
2026-05-04 19:52 51.35499 7.68316 17144 ft 300 kts 302°
2026-05-04 19:52 51.36681 7.65646 16920 ft 288 kts 302°
2026-05-04 19:53 51.37822 7.63063 16629 ft 281 kts 302°
2026-05-04 19:53 51.38947 7.60510 16228 ft 279 kts 302°
2026-05-04 19:53 51.40059 7.57980 15819 ft 277 kts 301°
2026-05-04 19:53 51.40926 7.55276 15385 ft 270 kts 282°
2026-05-04 19:54 51.41039 7.52347 14932 ft 262 kts 256°
2026-05-04 19:54 51.40359 7.49692 14484 ft 257 kts 237°
2026-05-04 19:54 51.39364 7.47324 14073 ft 256 kts 233°
2026-05-04 19:54 51.38332 7.45018 13658 ft 255 kts 233°
2026-05-04 19:55 51.37296 7.42725 13236 ft 253 kts 233°
2026-05-04 19:55 51.36273 7.40467 12814 ft 252 kts 233°
2026-05-04 19:55 51.35233 7.38172 12386 ft 251 kts 233°
2026-05-04 19:55 51.34232 7.35967 11961 ft 250 kts 233°
2026-05-04 19:56 51.33208 7.33716 11543 ft 249 kts 233°
2026-05-04 19:56 51.32194 7.31486 11132 ft 247 kts 233°
2026-05-04 19:56 51.31182 7.29269 10710 ft 246 kts 233°
2026-05-04 19:56 51.30161 7.27036 10291 ft 245 kts 233°
2026-05-04 19:57 51.29171 7.24871 9884 ft 244 kts 233°
2026-05-04 19:57 51.28169 7.22686 9494 ft 243 kts 233°
2026-05-04 19:57 51.27178 7.20523 9088 ft 242 kts 233°
2026-05-04 19:57 51.26183 7.18356 8699 ft 241 kts 233°
2026-05-04 19:58 51.25195 7.16208 8306 ft 239 kts 233°
2026-05-04 19:58 51.24252 7.14030 7915 ft 238 kts 243°
2026-05-04 19:58 51.23896 7.11473 7480 ft 239 kts 271°
2026-05-04 19:58 51.24364 7.08944 7078 ft 243 kts 300°
2026-05-04 19:59 51.25554 7.07046 6704 ft 246 kts 328°
2026-05-04 19:59 51.27186 7.06264 6406 ft 249 kts 356°
2026-05-04 19:59 51.28878 7.06785 6126 ft 250 kts 24°
2026-05-04 19:59 51.30378 7.08183 5992 ft 251 kts 32°
2026-05-04 20:00 51.31835 7.09723 5984 ft 251 kts 33°
2026-05-04 20:00 51.33290 7.11279 5997 ft 251 kts 33°
2026-05-04 20:00 51.34736 7.12829 6012 ft 251 kts 33°
2026-05-04 20:00 51.36185 7.14386 6015 ft 251 kts 33°
2026-05-04 20:01 51.37636 7.15945 6013 ft 251 kts 33°
2026-05-04 20:01 51.39082 7.17500 6014 ft 251 kts 33°
2026-05-04 20:01 51.40500 7.19126 6004 ft 251 kts 43°
2026-05-04 20:01 51.41642 7.21254 6015 ft 251 kts 52°
2026-05-04 20:02 51.42695 7.23476 6016 ft 251 kts 53°
2026-05-04 20:02 51.43748 7.25728 6013 ft 251 kts 53°
2026-05-04 20:02 51.44788 7.27954 5852 ft 247 kts 53°
2026-05-04 20:02 51.45808 7.30147 5459 ft 247 kts 53°
2026-05-04 20:03 51.46885 7.32293 5050 ft 247 kts 41°
2026-05-04 20:03 51.48356 7.33608 4648 ft 243 kts 12°
2026-05-04 20:03 51.50016 7.33649 4247 ft 237 kts 343°
2026-05-04 20:03 51.51432 7.32440 3866 ft 230 kts 314°
2026-05-04 20:04 51.52266 7.30334 3478 ft 224 kts 285°
2026-05-04 20:04 51.52382 7.27872 3119 ft 222 kts 265°
2026-05-04 20:04 51.52042 7.25471 2991 ft 222 kts 246°
2026-05-04 20:04 51.51298 7.23296 2986 ft 222 kts 237°
2026-05-04 20:05 51.50399 7.21352 2993 ft 215 kts 233°
2026-05-04 20:05 51.49492 7.19443 2998 ft 215 kts 233°
2026-05-04 20:05 51.48589 7.17528 3004 ft 215 kts 233°
2026-05-04 20:05 51.47684 7.15611 3008 ft 216 kts 233°
2026-05-04 20:06 51.46761 7.13656 3017 ft 222 kts 233°
2026-05-04 20:06 51.45826 7.11677 3016 ft 224 kts 233°
2026-05-04 20:06 51.44886 7.09688 3015 ft 223 kts 233°
2026-05-04 20:06 51.43947 7.07701 3014 ft 224 kts 233°
2026-05-04 20:07 51.43017 7.05734 3007 ft 216 kts 233°
2026-05-04 20:07 51.42139 7.03878 2988 ft 201 kts 233°
2026-05-04 20:07 51.41323 7.02153 2982 ft 192 kts 233°
2026-05-04 20:07 51.40525 7.00469 2992 ft 183 kts 233°
2026-05-04 20:08 51.39804 6.98945 3036 ft 171 kts 233°
2026-05-04 20:08 51.39078 6.97413 3031 ft 172 kts 233°
2026-05-04 20:08 51.38357 6.95891 2910 ft 171 kts 233°
2026-05-04 20:08 51.37639 6.94373 2709 ft 171 kts 233°
2026-05-04 20:09 51.36928 6.92849 2508 ft 171 kts 233°
2026-05-04 20:09 51.36214 6.91317 2313 ft 171 kts 232°
2026-05-04 20:09 51.35512 6.89790 2093 ft 171 kts 234°
2026-05-04 20:09 51.34818 6.88236 1879 ft 170 kts 231°
2026-05-04 20:10 51.34115 6.86844 1772 ft 157 kts 231°
2026-05-04 20:10 51.33446 6.85476 1525 ft 150 kts 230°
2026-05-04 20:10 51.32813 6.84202 1360 ft 140 kts 232°
2026-05-04 20:10 51.32276 6.83014 1214 ft 131 kts 231°
2026-05-04 20:11 51.31721 6.81864 982 ft 130 kts 231°
2026-05-04 20:11 51.31181 6.80737 782 ft 130 kts 232°
2026-05-04 20:11 51.30616 6.79585 541 ft 130 kts 231°
2026-05-04 20:11 51.30077 6.78433 310 ft 129 kts 230°
2026-05-04 20:12 51.29525 6.77300 166 ft 129 kts 232°
2026-05-04 20:12 51.29021 6.76241 136 ft 98 kts 231°
2026-05-04 20:12 51.28795 6.75796 133 ft 32 kts 220°
2026-05-04 20:12 51.28680 6.75690 127 ft 18 kts 194°
2026-05-04 20:13 51.28560 6.75690 125 ft 15 kts 163°
2026-05-04 20:13 51.28475 6.75759 127 ft 13 kts 143°
2026-05-04 20:13 51.28431 6.75812 128 ft 8 kts 142°
2026-05-04 20:13 51.28413 6.75835 132 ft 0 kts 141°
2026-05-04 20:15 51.28394 6.75859 132 ft 7 kts 141°
2026-05-04 20:15 51.28342 6.75924 134 ft 12 kts 142°
2026-05-04 20:15 51.28268 6.76010 133 ft 14 kts 148°
2026-05-04 20:15 51.28237 6.76041 133 ft 0 kts 147°
2026-05-04 20:16 51.28233 6.76046 133 ft 2 kts 147°
2026-05-04 20:16 51.28210 6.76070 134 ft 5 kts 147°
2026-05-04 20:17 51.28192 6.76138 134 ft 9 kts 74°
2026-05-04 20:17 51.28195 6.76234 133 ft 10 kts 127°
2026-05-04 20:17 51.28149 6.76307 133 ft 8 kts 122°
2026-05-04 20:17 51.28113 6.76397 133 ft 9 kts 133°
2026-05-04 20:18 51.28063 6.76449 134 ft 6 kts 149°
2026-05-04 20:18 51.28033 6.76486 134 ft 5 kts 120°
2026-05-04 20:18 51.28029 6.76522 134 ft 2 kts 90°